Location: Artiguedieu
(43.5000°N, 0.5454°E)
Time: 07:21:49
(UTC+00:00)

Meteor 1-10 Rocket - Pass Details

Date: 06 December 2020
Orbit: 836 x 910 km, 81.3° (Epoch: 19 January)

Event Time Altitude Azimuth Distance (km) Brightness Sun altitude
Exits shadow 04:41:00 30° 360° (N) 1,474 5.3 -27.4°
Maximum altitude 04:43:50 73° 79° (ENE) 894 4.3 -26.8°
Drops below altitude 10° 04:49:30 10° 164° (SSE) 2,498 6.9 -25.8°
Sets 04:51:57 0° 166° (SSE) 3,443 7.6 -25.4°
